This is the latest recevied weather packets stored in our database for station/object KD4EED. If no packets are shown the sender has not sent any weather packets the latest 10 day(s).
| Time | Temp. | Humidity | Pressure | Rain* | Wind** | Luminosity | Snow |
|---|---|---|---|---|---|---|---|
| 1777570285 | 22.22° C | 57% | 1010.4 hPa | - | - | 572 W/m² | - |
| 1777569980 | 22.22° C | 57% | 1010.2 hPa | - | - | 627 W/m² | - |
| 1777569676 | 22.22° C | 56% | 1010.3 hPa | - | - | 582 W/m² | - |
| 1777569373 | 21.67° C | 58% | 1010.3 hPa | - | - | 566 W/m² | - |
| 1777569069 | 21.11° C | 61% | 1010.4 hPa | - | - | 555 W/m² | - |
| 1777568766 | 20.56° C | 61% | 1010.4 hPa | - | - | 531 W/m² | - |
| 1777568464 | 20° C | 61% | 1010.3 hPa | - | - | 529 W/m² | - |
| 1777568160 | 18.89° C | 64% | 1010.4 hPa | - | - | 515 W/m² | - |
| 1777567857 | 18.89° C | 64% | 1010.3 hPa | - | - | 509 W/m² | - |
| 1777567553 | 18.33° C | 65% | 1010.5 hPa | - | - | 462 W/m² | - |
| 1777567250 | 18.33° C | 65% | 1010.5 hPa | - | - | 118 W/m² | - |
| 1777566949 | 18.33° C | 66% | 1010.4 hPa | - | - | 99 W/m² | - |
| 1777566646 | 18.33° C | 65% | 1010.4 hPa | - | - | 105 W/m² | - |
| 1777566344 | 18.33° C | 66% | 1010.6 hPa | - | - | 100 W/m² | - |
| 1777566041 | 18.33° C | 66% | 1010.7 hPa | - | - | 94 W/m² | - |
| 1777565736 | 18.33° C | 67% | 1010.6 hPa | - | - | 95 W/m² | - |
| 1777565433 | 18.33° C | 69% | 1010.6 hPa | - | - | 91 W/m² | - |
| 1777565129 | 17.78° C | 68% | 1010.6 hPa | - | - | 96 W/m² | - |
| 1777564826 | 17.78° C | 67% | 1010.8 hPa | - | - | 113 W/m² | - |
| 1777564520 | 18.33° C | 67% | 1010.8 hPa | - | - | 111 W/m² | - |
| 1777564215 | 18.33° C | 68% | 1010.7 hPa | - | - | 123 W/m² | - |
| 1777563912 | 17.78° C | 69% | 1011 hPa | - | - | 132 W/m² | - |
| 1777563609 | 17.78° C | 69% | 1010.8 hPa | - | - | 123 W/m² | - |
| 1777563308 | 17.78° C | 70% | 1010.8 hPa | - | - | 134 W/m² | - |
| 1777563005 | 17.78° C | 71% | 1011.1 hPa | - | - | 122 W/m² | - |
* Rain since midnight (hover to see other rain measurements)
** Current wind speed in m/s (hover to see current wind gust speed)